When you browse on this site, cookies collect data to enhance your experience and personalize the content and advertising you see.
Visit our Privacy Policy to learn more. By continuing to use the site, you agree to this use of cookies and data.
  • In Denmark
  • List of Countries
  • For 7 days
  • Water Temperature
  • Weather Map
  • Weather Widgets
  • user-avatar
    Login

    Hourly Weather Kiustendil

    Today, 26 February, Wednesday

    Time Temperature Precipitation Wind Pressure Humidity
    00:00 -1°C° 0 mm 2 mps 618 mmHg 80%
    01:00 -1°C° 0 mm 2 mps 618 mmHg 81%
    02:00 -1°C° 0 mm 2 mps 617 mmHg 82%
    03:00 -2°C° 0 mm 2 mps 616 mmHg 82%
    04:00 -2°C° 0 mm 2 mps 616 mmHg 83%
    05:00 -2°C° 0 mm 2 mps 616 mmHg 83%
    06:00 -2°C° 0 mm 2 mps 615 mmHg 82%
    07:00 -1°C° 0 mm 2 mps 615 mmHg 82%
    08:00 +1°C° 0 mm 2 mps 616 mmHg 75%
    09:00 +3°C° 0 mm 2 mps 616 mmHg 68%
    10:00 +4°C° 0 mm 3 mps 616 mmHg 62%
    11:00 +5°C° 0 mm 4 mps 616 mmHg 57%
    12:00 +6°C° 0 mm 5 mps 615 mmHg 52%
    13:00 +7°C° 0 mm 5 mps 615 mmHg 47%
    14:00 +5°C° 0 mm 6 mps 615 mmHg 50%
    15:00 +4°C° 0 mm 6 mps 614 mmHg 53%
    16:00 +4°C° 0 mm 6 mps 613 mmHg 56%
    17:00 +2°C° 0 mm 5 mps 613 mmHg 64%
    18:00 +1°C° 0 mm 4 mps 613 mmHg 71%
    19:00 0°C° 0 mm 3 mps 612 mmHg 78%
    20:00 0°C° 0 mm 3 mps 612 mmHg 79%
    21:00 0°C° 0 mm 3 mps 612 mmHg 80%
    22:00 -1°C° 0 mm 3 mps 612 mmHg 81%
    23:00 -1°C° 0 mm 3 mps 612 mmHg 79%

    Tomorrow, 27 February, Thursday

    Time Temperature Precipitation Wind Pressure Humidity
    00:00 -2°C° 0 mm 4 mps 612 mmHg 78%
    01:00 -2°C° 0 mm 4 mps 612 mmHg 77%
    02:00 -3°C° 0 mm 4 mps 611 mmHg 77%
    03:00 -3°C° 0 mm 4 mps 611 mmHg 77%
    04:00 -3°C° 0 mm 4 mps 611 mmHg 77%
    05:00 -5°C° 0.5 mm 5 mps 611 mmHg 77%
    06:00 -5°C° 0.5 mm 6 mps 611 mmHg 77%
    07:00 -6°C° 0.5 mm 6 mps 611 mmHg 77%
    08:00 -5°C° 0.2 mm 6 mps 612 mmHg 72%
    09:00 -4°C° 0.2 mm 6 mps 613 mmHg 67%
    10:00 -4°C° 0.2 mm 5 mps 614 mmHg 62%
    11:00 -4°C° 0.2 mm 5 mps 614 mmHg 61%
    12:00 -4°C° 0.2 mm 5 mps 614 mmHg 60%
    13:00 -3°C° 0.2 mm 4 mps 615 mmHg 59%
    14:00 -4°C° 0 mm 4 mps 615 mmHg 59%
    15:00 -5°C° 0 mm 4 mps 615 mmHg 59%
    16:00 -5°C° 0 mm 4 mps 615 mmHg 60%
    17:00 -6°C° 0 mm 3 mps 615 mmHg 64%
    18:00 -6°C° 0 mm 2 mps 616 mmHg 69%
    19:00 -7°C° 0 mm 2 mps 616 mmHg 74%
    20:00 -6°C° 0 mm 1 mps 616 mmHg 74%
    21:00 -7°C° 0 mm 1 mps 617 mmHg 74%
    22:00 -7°C° 0 mm 1 mps 617 mmHg 74%
    23:00 -7°C° 0 mm 1 mps 617 mmHg 72%

    Day after tomorrow, 28 February, Friday

    Time Temperature Precipitation Wind Pressure Humidity
    00:00 -7°C° 0 mm 1 mps 617 mmHg 69%
    01:00 -7°C° 0 mm 1 mps 617 mmHg 66%
    02:00 -7°C° 0 mm 1 mps 617 mmHg 66%
    03:00 -7°C° 0 mm 1 mps 617 mmHg 65%
    04:00 -7°C° 0 mm 1 mps 617 mmHg 65%
    05:00 -6°C° 0 mm 1 mps 617 mmHg 65%
    06:00 -6°C° 0 mm 1 mps 617 mmHg 66%
    07:00 -4°C° 0 mm 1 mps 617 mmHg 66%
    08:00 -5°C° 0 mm 2 mps 618 mmHg 63%
    09:00 -4°C° 0 mm 2 mps 618 mmHg 61%
    10:00 -4°C° 0 mm 3 mps 618 mmHg 59%
    11:00 -2°C° 0 mm 3 mps 618 mmHg 57%
    12:00 -1°C° 0 mm 3 mps 619 mmHg 56%
    13:00 0°C° 0 mm 3 mps 619 mmHg 54%
    14:00 -2°C° 0.5 mm 3 mps 619 mmHg 63%
    15:00 -4°C° 0.5 mm 3 mps 619 mmHg 71%
    16:00 -5°C° 0.5 mm 3 mps 618 mmHg 79%
    17:00 -6°C° 0.1 mm 3 mps 619 mmHg 79%
    18:00 -6°C° 0.1 mm 2 mps 619 mmHg 78%
    19:00 -4°C° 0.1 mm 1 mps 620 mmHg 78%
    20:00 -6°C° 0 mm 1 mps 620 mmHg 79%
    21:00 -6°C° 0 mm 1 mps 620 mmHg 80%
    22:00 -7°C° 0 mm 1 mps 621 mmHg 81%
    23:00 -7°C° 0 mm 1 mps 621 mmHg 81%

    29 February, Saturday

    Time Temperature Precipitation Wind Pressure Humidity
    00:00 -7°C° 0 mm 1 mps 621 mmHg 82%
    01:00 -7°C° 0 mm 1 mps 621 mmHg 82%
    02:00 -7°C° 0 mm 1 mps 621 mmHg 81%
    03:00 -8°C° 0 mm 1 mps 621 mmHg 80%
    04:00 -8°C° 0 mm 1 mps 621 mmHg 78%
    05:00 -7°C° 0 mm 0 mps 621 mmHg 75%
    06:00 -7°C° 0 mm 0 mps 621 mmHg 71%
    07:00 -6°C° 0 mm 0 mps 621 mmHg 67%
    08:00 -3°C° 0 mm 1 mps 622 mmHg 59%
    09:00 -2°C° 0 mm 1 mps 623 mmHg 52%
    10:00 0°C° 0 mm 1 mps 623 mmHg 44%
    11:00 +1°C° 0 mm 1 mps 623 mmHg 41%
    12:00 +1°C° 0 mm 2 mps 623 mmHg 39%
    13:00 +2°C° 0 mm 2 mps 623 mmHg 36%
    14:00 +2°C° 0 mm 2 mps 623 mmHg 40%
    15:00 +2°C° 0 mm 2 mps 622 mmHg 44%
    16:00 +2°C° 0 mm 2 mps 622 mmHg 48%
    17:00 +1°C° 0 mm 1 mps 622 mmHg 52%
    18:00 0°C° 0 mm 1 mps 621 mmHg 57%
    19:00 -1°C° 0 mm 1 mps 621 mmHg 61%
    20:00 -1°C° 0 mm 1 mps 621 mmHg 63%
    21:00 -2°C° 0 mm 1 mps 621 mmHg 64%
    22:00 -2°C° 0 mm 1 mps 621 mmHg 66%
    23:00 -2°C° 0 mm 1 mps 621 mmHg 67%

    1 March, Sunday

    Time Temperature Precipitation Wind Pressure Humidity
    00:00 -2°C° 0 mm 1 mps 620 mmHg 69%
    01:00 -2°C° 0 mm 1 mps 620 mmHg 71%
    02:00 -2°C° 0 mm 1 mps 620 mmHg 73%
    03:00 -2°C° 0 mm 1 mps 620 mmHg 74%
    04:00 -5°C° 0 mm 2 mps 620 mmHg 76%
    05:00 -2°C° 0 mm 1 mps 620 mmHg 77%
    06:00 -2°C° 0 mm 1 mps 620 mmHg 78%
    07:00 -2°C° 0 mm 1 mps 620 mmHg 78%
    08:00 -2°C° 0 mm 2 mps 621 mmHg 74%
    09:00 +1°C° 0 mm 2 mps 621 mmHg 69%
    10:00 +3°C° 0 mm 2 mps 622 mmHg 64%
    11:00 +3°C° 0 mm 3 mps 621 mmHg 62%
    12:00 +4°C° 0 mm 3 mps 621 mmHg 60%
    13:00 +5°C° 0 mm 3 mps 621 mmHg 58%
    14:00 +4°C° 0 mm 3 mps 620 mmHg 61%
    15:00 +4°C° 0 mm 3 mps 620 mmHg 64%
    16:00 +4°C° 0 mm 2 mps 620 mmHg 67%
    17:00 +3°C° 0 mm 2 mps 619 mmHg 71%
    18:00 +2°C° 0 mm 2 mps 619 mmHg 75%
    19:00 +1°C° 0 mm 2 mps 619 mmHg 79%
    20:00 +1°C° 0 mm 2 mps 619 mmHg 81%
    21:00 +1°C° 0 mm 2 mps 619 mmHg 83%
    22:00 -1°C° 0 mm 2 mps 619 mmHg 85%
    23:00 -1°C° 0 mm 2 mps 618 mmHg 86%

    2 March, Monday

    Time Temperature Precipitation Wind Pressure Humidity
    00:00 -1°C° 0 mm 2 mps 618 mmHg 86%
    01:00 -1°C° 0 mm 2 mps 618 mmHg 87%
    02:00 -1°C° 0 mm 2 mps 618 mmHg 87%
    03:00 +1°C° 0 mm 1 mps 618 mmHg 87%
    04:00 +1°C° 0 mm 1 mps 618 mmHg 87%
    05:00 +1°C° 0 mm 1 mps 618 mmHg 86%
    06:00 +1°C° 0 mm 1 mps 618 mmHg 85%
    07:00 +2°C° 0 mm 1 mps 618 mmHg 84%
    08:00 +3°C° 0 mm 1 mps 618 mmHg 80%
    09:00 +4°C° 0 mm 1 mps 619 mmHg 76%
    10:00 +4°C° 0 mm 2 mps 619 mmHg 71%
    11:00 +4°C° 0.1 mm 2 mps 619 mmHg 71%
    12:00 +5°C° 0.1 mm 2 mps 619 mmHg 71%
    13:00 +5°C° 0.1 mm 2 mps 619 mmHg 71%
    14:00 +5°C° 0 mm 2 mps 619 mmHg 71%
    15:00 +5°C° 0 mm 2 mps 619 mmHg 72%
    16:00 +5°C° 0 mm 2 mps 619 mmHg 72%
    17:00 +4°C° 0 mm 2 mps 618 mmHg 78%
    18:00 +3°C° 0 mm 2 mps 618 mmHg 83%
    19:00 +2°C° 0 mm 2 mps 618 mmHg 88%
    20:00 +2°C° 0 mm 2 mps 618 mmHg 89%
    21:00 +1°C° 0 mm 2 mps 618 mmHg 89%
    22:00 +1°C° 0 mm 2 mps 618 mmHg 89%
    23:00 +1°C° 0 mm 2 mps 618 mmHg 90%
    Show more